Weather History for Greenville, SC

Change the Weather History Date:

Tuesday, June 5, 2012

  Actual Average (KGSP) Record (KGSP)
Temperature  
Mean Temperature 68 °F 74 °F  
Max Temperature 75 °F 85 °F 100 °F (1985)
Min Temperature 62 °F 63 °F 48 °F (1988)
Degree Days  
Heating Degree Days 0 0  
Month to date heating degree days 0  
Since 1 June heating degree days 0  
Since 1 July heating degree days 3044  
Cooling Degree Days 4 10  
Month to date cooling degree days 45  
Year to date cooling degree days 246  
Since 1 June cooling degree days 45  
Growing Degree Days 18 (Base 50)    
Moisture  
Dew Point 62 °F    
Average Humidity 86    
Maximum Humidity 100    
Minimum Humidity 61    
Precipitation  
Precipitation 0.76 in 0.13 in 3.08 in (1920)
Month to date precipitation 0.63  
Year to date precipitation 20.06  
Snow  
Snow 0.00 in 0.00 in 0.00 in ()
Month to date snowfall 0.0  
Since 1 June snowfall 0.0  
Since 1 July snowfall 4.7  
Snow Depth -    
Sea Level Pressure  
Sea Level Pressure 29.81 in    
Wind  
Wind Speed 3 mph (SSE)    
Max Wind Speed 13 mph    
Max Gust Speed 16 mph    
Visibility 9 miles    
Events Rain , Thunderstorm    
T = Trace of Precipitation, MM = Missing Value Source: NWS Daily Summary

Daily Weather History Graph

Daily Weather History Graph

Search for Another Location

Airport:

Trip Planner

Search our weather history database for the weather conditions in past years. The results will help you decide how hot, cold, wet, or windy it might be!

Date:

Astronomy

Jun. 05, 2012 Rise Set
Actual Time 6:16 AM EDT 8:40 PM EDT
Civil Twilight 5:47 AM EDT 9:09 PM EDT
Nautical Twilight 5:10 AM EDT 9:45 PM EDT
Astronomical Twilight 4:31 AM EDT 10:25 PM EDT
Moon 10:05 PM EDT (6/5) 7:25 AM EDT (6/5)
Length of Visible Light 15h 22m
Length of Day
14h 23m
Full, 98% of the Moon is Illuminated
Jun 5
Full
Jun 11
Last Quarter
Jun 19
New
Jun 26
First Quarter
Jul 3
Full

Hourly Weather History & Observations

Time (EDT) Temp. Dew Point Humidity Pressure Visibility Wind Dir Wind Speed Gust Speed Precip Events Conditions
12:15 AM 66.2 °F 64.4 °F 94% 29.78 in 10.0 mi Calm Calm - N/A   Mostly Cloudy
12:35 AM 68.0 °F 62.6 °F 83% 29.79 in 10.0 mi Calm Calm - N/A   Mostly Cloudy
12:55 AM 68.0 °F 62.6 °F 83% 29.78 in 10.0 mi Calm Calm - N/A   Overcast
1:15 AM 68.0 °F 62.6 °F 83% 29.78 in 10.0 mi SSW 3.5 mph - N/A   Overcast
1:35 AM 68.0 °F 62.6 °F 83% 29.77 in 10.0 mi West 3.5 mph - N/A   Overcast
1:55 AM 68.0 °F 62.6 °F 83% 29.77 in 10.0 mi Calm Calm - N/A   Overcast
2:15 AM 68.0 °F 62.6 °F 83% 29.77 in 10.0 mi Calm Calm - N/A Rain Light Rain
2:35 AM 68.0 °F 62.6 °F 83% 29.76 in 7.0 mi Calm Calm - 0.02 in Rain Light Rain
2:55 AM 66.2 °F 62.6 °F 88% 29.76 in 10.0 mi Calm Calm - 0.02 in Rain Rain
3:15 AM 66.2 °F 62.6 °F 88% 29.76 in 10.0 mi NE 6.9 mph - 0.02 in Rain Light Rain
3:35 AM 66.2 °F 62.6 °F 88% 29.75 in 10.0 mi NE 12.7 mph 16.1 mph 0.02 in Rain Light Rain
3:55 AM 64.4 °F 62.6 °F 94% 29.78 in 1.8 mi NNE 11.5 mph 16.1 mph 0.34 in Rain Heavy Rain
4:15 AM 62.6 °F 60.8 °F 94% 29.78 in 3.0 mi NNW 4.6 mph - 0.18 in Rain , Thunderstorm Heavy Thunderstorms and Rain
4:35 AM 62.6 °F 60.8 °F 94% 29.76 in 5.0 mi NNE 3.5 mph - 0.29 in Rain Rain
4:55 AM 62.6 °F 60.8 °F 94% 29.77 in 10.0 mi Calm Calm - 0.31 in Rain Light Rain
5:15 AM 62.6 °F 60.8 °F 94% 29.77 in 10.0 mi South 4.6 mph - N/A Rain Light Rain
5:35 AM 62.6 °F 60.8 °F 94% 29.80 in 10.0 mi Calm Calm - 0.01 in Rain Light Rain
5:55 AM 62.6 °F 60.8 °F 94% 29.81 in 7.0 mi NNE 3.5 mph - 0.03 in Rain Rain
6:15 AM 62.6 °F 60.8 °F 94% 29.83 in 7.0 mi Calm Calm - 0.02 in Rain Rain
6:35 AM 62.6 °F 62.6 °F 100% 29.81 in 7.0 mi ENE 3.5 mph - 0.06 in Rain Rain
6:47 AM 64.4 °F 62.6 °F 94% 29.81 in 3.0 mi Calm Calm - N/A Rain Rain
7:47 AM 64.4 °F 62.6 °F 94% 29.81 in 5.0 mi Calm Calm - N/A Rain Rain
8:47 AM 64.4 °F 62.6 °F 94% 29.83 in 10.0 mi NNE 3.5 mph - N/A   Overcast
9:50 AM 64.4 °F 62.6 °F 94% 29.85 in 10.0 mi NE 5.8 mph - N/A Rain Light Rain
10:47 AM 64.4 °F 60.8 °F 88% 29.86 in 10.0 mi Calm Calm - N/A   Mostly Cloudy
11:47 AM 66.2 °F 60.8 °F 83% 29.88 in 10.0 mi SSW 3.5 mph - N/A   Overcast
12:47 PM 68.0 °F 62.6 °F 83% 29.85 in 10.0 mi SSW 4.6 mph - N/A   Mostly Cloudy
1:48 PM 69.8 °F 62.6 °F 78% 29.85 in 10.0 mi South 3.5 mph - N/A   Overcast
2:48 PM 71.6 °F 62.6 °F 73% 29.84 in 10.0 mi SE 4.6 mph - N/A   Scattered Clouds
3:47 PM 73.4 °F 60.8 °F 65% 29.82 in 10.0 mi SSE 6.9 mph - N/A   Scattered Clouds
4:47 PM 75.2 °F 60.8 °F 61% 29.82 in 10.0 mi SSE 8.1 mph - N/A   Scattered Clouds
5:48 PM 75.2 °F 60.8 °F 61% 29.82 in 10.0 mi SSE 6.9 mph - N/A   Scattered Clouds
6:48 PM 73.4 °F 62.6 °F 69% 29.81 in 10.0 mi South 8.1 mph - N/A   Scattered Clouds
7:48 PM 71.6 °F 62.6 °F 73% 29.83 in 10.0 mi SSW 8.1 mph - N/A   Scattered Clouds
8:48 PM 68.0 °F 62.6 °F 83% 29.85 in 10.0 mi South 5.8 mph - N/A   Scattered Clouds
9:15 PM 66.2 °F 60.8 °F 83% 29.85 in 10.0 mi South 4.6 mph - N/A   Mostly Cloudy
9:35 PM 64.4 °F 60.8 °F 88% 29.86 in 10.0 mi Calm Calm - N/A   Scattered Clouds
9:55 PM 64.4 °F 60.8 °F 88% 29.87 in 10.0 mi Calm Calm - N/A   Mostly Cloudy
10:55 PM 62.6 °F 60.8 °F 94% 29.88 in 10.0 mi Calm Calm - N/A   Mostly Cloudy
11:15 PM 62.6 °F 60.8 °F 94% 29.88 in 10.0 mi Calm Calm - N/A   Scattered Clouds
11:35 PM 62.6 °F 60.8 °F 94% 29.89 in 10.0 mi Calm Calm - N/A   Scattered Clouds